Location: Newark
(43.0275°N, 0.5708°E)
Time: 15:23:48
(UTC+00:00)

OTV 5 (USA 277) - Pass Details

Date: 30 October 2019
Orbit: 310 x 324 km, 54.5° (Epoch: 17 October)

Event Time Altitude Azimuth Distance (km) Brightness Sun altitude
Rises 17:29:53 0° 213° (SSW) 2,044 ? -7.3°
Reaches altitude 10° 17:31:54 10° 204° (SSW) 1,220 ? -7.7°
Maximum altitude 17:34:26 36° 135° (SE) 532 ? -8.2°
Enters shadow 17:36:39 12° 69° (ENE) 1,107 ? -8.6°
